DELTA 1 R/B, 1729

Orbit data source: Space-Track

DELTA 1 R/B, 1729 is space debris in LEO originally from a launch on Sat, 06 Nov 1965 UTC launched from the Air Force Eastern Test Range (AFETR). Debris objects in space refer to the collection of defunct objects orbiting the Earth. Examples of debris include non-operational satellites, rocket bodies, and fragments generated from explosions, collisions, or faulty payload assembly.

Loading next visibility...
DELTA 1 R/B details
Identifier
1729, 1965-089B
Orbit
LEO
Last TLE update16 hours ago
Origin
Flag of USGSFC (US)
ManufacturerABL
MissionSpacecraft
Bus & MotorALTAIR, Unknown motor
Mass~60 kg wet, ~60 kg dry
Launch date (UTC)
1965-11-06 (59 years ago)
Launch vehicleUnknown
Launch site
Air Force Eastern Test Range (AFETR)
Object type
Payload
Rocket body
Debris
Shape & HBRCyl, 1.5 m
Radar Cross Section0.687 m², Medium (>0.1 m² and < 1m²)

Expand to show TLE details & history

TLE from 16 hours ago
0 DELTA 1 R/B
1  1729U 65089B   24355.86588097 -.00000042  00000-0  19819-3 0  9995
2  1729  59.3893 155.2062 0713004 195.4200 334.1252 11.97557759585773
Epoch: 2024-12-20T20:46Z
Definitive object data (Epoch: 2024-12-20T20:46:52.115Z)
Latitude12.28645°
Longitude-73.80133°
Altitude1,183.302 km
Speed7.489 km/s
True Right ascension21h 51m 21s
True Declination12° 13' 09"
Sunlit
Object was in daylight at TLE epoch
Visualization TLE readout
Latitude-16.29225°
Longitude-58.04775°
Altitude1,121.944 km
Speed7.547 km/s
Apparent Right ascension23h 20m 59s
Apparent Declination-27° 13' 35"
Sunlit
Object is in daylight
Visualization observer readout
Local Sidereal Time12:00:12
Azimuth35.624° NE
Elevation-74.93°
Doppler factor1
Orbital elements
Apogee altitude2,266.555 km
Perigee altitude1,115.86 km
Semi-major axis8,069.345 km
Eccentricity0.0713004
Inclination59.3893°
RAAN155.2062°
Arg. of periapsis195.42°
True anomaly330.2529°
Mean anomaly334.1252°
Eccentric anomaly332.22125°
Mean motion2.99423 °/min
BSTAR0.00019819
Orbital period120.23 mins
Loading maneuver chart data...
Loading historical data...
Loading historical data...
Loading historical data...
Loading historical data...
Loading historical data...
Loading historical data...
Loading historical data...

DELTA 1 R/B Visibility forecast

Observer location: undefined°, undefined

Span
Click to sort rows by Start time (UTC) header in descending order
Start Az.
Max El. time (UTC)
Max El. Az.
Max El.
End time (UTC)
End Az.
23 mins2024-12-21 14:00:19.642Z240.431° WSW2024-12-21 14:13:19.642Z325.127° NNW40.583°2024-12-21 14:23:19.642Z36.135° NE
17 mins2024-12-21 16:12:19.642Z291.627° WNW2024-12-21 16:21:19.642Z345.156° N26.079°2024-12-21 16:29:19.642Z39.678° NE
14 mins2024-12-21 18:23:19.642Z324.861° NNW2024-12-21 18:30:19.642Z12.489° NNE25.77°2024-12-21 18:37:19.642Z69.18° E
16 mins2024-12-21 20:29:19.642Z323.066° NNW2024-12-21 20:38:19.642Z54.477° ENE42.544°2024-12-21 20:45:19.642Z126.107° SE
12 mins2024-12-21 22:36:19.642Z298.463° NW2024-12-21 22:42:19.642Z247.772° W25.798°2024-12-21 22:48:19.642Z192.833° SSW
11 mins2024-12-22 10:01:19.642Z128.898° SE2024-12-22 10:06:19.642Z104.786° ESE15.039°2024-12-22 10:12:19.642Z75.392° E
22 mins2024-12-22 11:59:19.642Z195.487° SSW2024-12-22 12:10:19.642Z121.886° SE41.637°2024-12-22 12:21:19.642Z45.816° ENE
|